Location: Edinburgh
(55.9500°N, 3.1600°W)
Time: 07:09:01
(UTC+01:00)

ISS - Pass Details

Date: 09 October 2017
Orbit: 401 x 408 km, 51.6° (Epoch: 23 October)

Event Time Altitude Azimuth Distance (km) Brightness Sun altitude
Rises 19:18:38 0° 267° (W) 2,326 2.6 -8.1°
Reaches altitude 10° 19:20:49 10° 258° (WSW) 1,467 0.5 -8.4°
Maximum altitude 19:23:50 34° 192° (SSW) 700 -2.5 -8.8°
Drops below altitude 10° 19:26:51 10° 125° (SE) 1,468 -1.5 -9.2°
Enters shadow 19:26:57 - 125° (SE) 1,508 -1.4 -9.2°
